| time (UTC) | temp F | wind direction | speed MPH | gust MPH | rain 1hr in | rain 24hr in | rain mn in | humidity % | barometer mb |
| 20260506231838 | 59 | 63 | 2.0 | 5.0 | 0.00 | 0.00 | 0.00 | 69 | 1021.5 |
| 20260506231336 | 59 | 143 | 2.0 | 5.0 | 0.00 | 0.00 | 0.00 | 69 | 1021.4 |
| 20260506230833 | 59 | 223 | 4.0 | 6.0 | 0.00 | 0.00 | 0.00 | 68 | 1021.4 |
| 20260506230330 | 59 | 216 | 0.0 | 4.0 | 0.00 | 0.00 | 0.00 | 69 | 1021.5 |
| 20260506225826 | 59 | 160 | 2.0 | 6.0 | 0.00 | 0.00 | 0.00 | 70 | 1021.5 |
| 20260506225324 | 59 | 68 | 0.0 | 13.0 | 0.00 | 0.00 | 0.00 | 70 | 1021.2 |
| 20260506224820 | 59 | 239 | 3.0 | 6.0 | 0.00 | 0.00 | 0.00 | 70 | 1021.6 |
| 20260506224318 | 59 | 120 | 4.0 | 11.0 | 0.00 | 0.00 | 0.00 | 70 | 1021.2 |
| 20260506223814 | 59 | 72 | 1.0 | 4.0 | 0.00 | 0.00 | 0.00 | 72 | 1021.5 |
| 20260506223309 | 59 | 217 | 1.0 | 4.0 | 0.00 | 0.00 | 0.00 | 73 | 1021.4 |
| 20260506222807 | 59 | 231 | 2.0 | 3.0 | 0.00 | 0.00 | 0.00 | 72 | 1021.5 |
| 20260506222305 | 59 | 108 | 2.0 | 6.0 | 0.00 | 0.00 | 0.00 | 73 | 1021.5 |
| 20260506221800 | 59 | 49 | 0.0 | 2.0 | 0.00 | 0.00 | 0.00 | 72 | 1021.5 |
| 20260506221258 | 59 | 68 | 2.0 | 8.0 | 0.00 | 0.00 | 0.00 | 73 | 1021.6 |
| 20260506220756 | 59 | 215 | 2.0 | 4.0 | 0.00 | 0.00 | 0.00 | 72 | 1021.6 |
| 20260506220255 | 59 | 148 | 1.0 | 4.0 | 0.00 | 0.00 | 0.00 | 73 | 1021.5 |
| 20260506215752 | 59 | 252 | 2.0 | 6.0 | 0.00 | 0.00 | 0.00 | 72 | 1021.5 |
| 20260506215248 | 59 | 214 | 3.0 | 6.0 | 0.00 | 0.00 | 0.00 | 73 | 1021.5 |
| 20260506214744 | 58 | 239 | 3.0 | 5.0 | 0.00 | 0.00 | 0.00 | 74 | 1021.6 |
| 20260506214242 | 58 | 233 | 6.0 | 8.0 | 0.00 | 0.00 | 0.00 | 75 | 1021.6 |
| 20260506213740 | 58 | 227 | 3.0 | 6.0 | 0.00 | 0.00 | 0.00 | 74 | 1021.6 |
| 20260506213237 | 59 | 226 | 1.0 | 5.0 | 0.00 | 0.00 | 0.00 | 73 | 1021.8 |
| 20260506212734 | 59 | 250 | 2.0 | 6.0 | 0.00 | 0.00 | 0.00 | 73 | 1021.7 |
| 20260506212230 | 59 | 212 | 4.0 | 5.0 | 0.00 | 0.00 | 0.00 | 72 | 1021.5 |
| 20260506211725 | 59 | 192 | 3.0 | 9.0 | 0.00 | 0.00 | 0.00 | 72 | 1021.7 |
| 20260506211222 | 59 | 244 | 5.0 | 6.0 | 0.00 | 0.00 | 0.00 | 72 | 1021.6 |
| 20260506210719 | 59 | 298 | 2.0 | 6.0 | 0.00 | 0.00 | 0.00 | 73 | 1021.7 |
| 20260506210216 | 59 | 226 | 6.0 | 8.0 | 0.00 | 0.00 | 0.00 | 73 | 1021.5 |
| 20260506205713 | 59 | 220 | 14.0 | 15.0 | 0.00 | 0.00 | 0.00 | 72 | 1021.4 |
| 20260506205208 | 59 | 113 | 2.0 | 8.0 | 0.00 | 0.00 | 0.00 | 71 | |
| 20260506204705 | 59 | 283 | 1.0 | 6.0 | 0.00 | 0.00 | 0.00 | 71 | |
| 20260506204202 | 59 | 283 | 1.0 | 6.0 | 0.00 | 0.00 | 0.00 | 71 | |
| 20260506203700 | 59 | 112 | 2.0 | 5.0 | 0.00 | 0.00 | 0.00 | 72 | |
| 20260506203157 | 59 | 223 | 2.0 | 9.0 | 0.00 | 0.00 | 0.00 | 71 | |
| 20260506202655 | 59 | 140 | 9.0 | 12.0 | 0.00 | 0.00 | 0.00 | 72 | |
| 20260506202151 | 59 | 232 | 3.0 | 9.0 | 0.00 | 0.00 | 0.00 | 72 | |
| 20260506201648 | 59 | 182 | 5.0 | 6.0 | 0.00 | 0.00 | 0.00 | 72 | |
| 20260506201144 | 59 | 174 | 4.0 | 15.0 | 0.00 | 0.00 | 0.00 | 72 | |
| 20260506200641 | 59 | 216 | 6.0 | 10.0 | 0.00 | 0.00 | 0.00 | 71 | |
| 20260506200138 | 59 | 216 | 4.0 | 8.0 | 0.00 | 0.00 | 0.00 | 74 | |
| 20260506195635 | 59 | 254 | 2.0 | 11.0 | 0.00 | 0.00 | 0.00 | 73 | |
| 20260506195131 | 59 | 217 | 4.0 | 6.0 | 0.00 | 0.00 | 0.00 | 74 | |
| 20260506194629 | 59 | 126 | 12.0 | 13.0 | 0.00 | 0.00 | 0.00 | 72 | |
| 20260506194125 | 59 | 126 | 8.0 | 9.0 | 0.00 | 0.00 | 0.00 | 74 | |
| 20260506193623 | 59 | 120 | 10.0 | 11.0 | 0.00 | 0.00 | 0.00 | 76 | |
| 20260506193120 | 58 | 127 | 5.0 | 12.0 | 0.00 | 0.00 | 0.00 | 77 | |
| 20260506192616 | 58 | 117 | 5.0 | 10.0 | 0.00 | 0.00 | 0.00 | 78 | |
| 20260506192112 | 58 | 113 | 2.0 | 7.0 | 0.00 | 0.00 | 0.00 | 78 | |
| 20260506191609 | 58 | 119 | 2.0 | 4.0 | 0.00 | 0.00 | 0.00 | 79 | |
| 20260506191105 | 57 | 118 | 5.0 | 8.0 | 0.00 | 0.00 | 0.00 | 79 | |
| 20260506190603 | 57 | 231 | 3.0 | 4.0 | 0.00 | 0.00 | 0.00 | 79 | |
| 20260506190059 | 57 | 186 | 4.0 | 5.0 | 0.00 | 0.00 | 0.00 | 80 | |
| 20260506185557 | 57 | 130 | 3.0 | 5.0 | 0.00 | 0.00 | 0.00 | 79 | |
| 20260506185053 | 57 | 205 | 2.0 | 6.0 | 0.00 | 0.00 | 0.00 | 79 | |
| 20260506184550 | 57 | 178 | 3.0 | 5.0 | 0.00 | 0.00 | 0.00 | 79 | |
| 20260506184048 | 57 | 242 | 0.0 | 3.0 | 0.00 | 0.00 | 0.00 | 81 | |
| 20260506183543 | 57 | 133 | 7.0 | 8.0 | 0.00 | 0.00 | 0.00 | 80 | |
| 20260506183040 | 57 | 183 | 1.0 | 7.0 | 0.00 | 0.00 | 0.00 | 79 | |
| 20260506182538 | 57 | 169 | 3.0 | 7.0 | 0.00 | 0.00 | 0.00 | 80 | |
| 20260506182035 | 57 | 241 | 2.0 | 6.0 | 0.00 | 0.00 | 0.00 | 81 | |
| 20260506181533 | 57 | 248 | 0.0 | 6.0 | 0.00 | 0.00 | 0.00 | 81 | |
| 20260506181029 | 57 | 86 | 2.0 | 3.0 | 0.00 | 0.00 | 0.00 | 83 | |
| 20260506180525 | 57 | 114 | 4.0 | 5.0 | 0.00 | 0.00 | 0.00 | 82 | |
| 20260506180022 | 57 | 118 | 2.0 | 2.0 | 0.00 | 0.00 | 0.00 | 83 | |
| 20260506175519 | 57 | 252 | 5.0 | 5.0 | 0.00 | 0.00 | 0.00 | 83 | |
| 20260506175015 | 57 | 119 | 4.0 | 5.0 | 0.00 | 0.00 | 0.00 | 85 | |
| 20260506174514 | 57 | 235 | 1.0 | 2.0 | 0.00 | 0.00 | 0.00 | 86 | |
| 20260506174010 | 56 | 157 | 2.0 | 4.0 | 0.00 | 0.00 | 0.00 | 85 | |
| 20260506173508 | 56 | 232 | 1.0 | 6.0 | 0.00 | 0.00 | 0.00 | 85 | |
| 20260506173004 | 56 | 234 | 4.0 | 7.0 | 0.00 | 0.00 | 0.00 | 85 | |
| 20260506172502 | 56 | 145 | 0.0 | 3.0 | 0.00 | 0.00 | 0.00 | 85 | |
| 20260506171957 | 56 | 150 | 3.0 | 6.0 | 0.00 | 0.00 | 0.00 | 84 | |
| 20260506171455 | 56 | 245 | 4.0 | 4.0 | 0.00 | 0.00 | 0.00 | 84 | |
| 20260506170953 | 56 | 294 | 0.0 | 4.0 | 0.00 | 0.00 | 0.00 | 83 | |
| 20260506170449 | 57 | 135 | 2.0 | 4.0 | 0.00 | 0.00 | 0.00 | 83 | |
| 20260506165948 | 56 | 333 | 0.0 | 6.0 | 0.00 | 0.00 | 0.00 | 83 | |
| 20260506165446 | 56 | 296 | 0.0 | 6.0 | 0.00 | 0.00 | 0.00 | 84 | |
| 20260506164942 | 57 | 88 | 1.0 | 2.0 | 0.00 | 0.00 | 0.00 | 84 | |
| 20260506164439 | 57 | 25 | 0.0 | 2.0 | 0.00 | 0.00 | 0.00 | 84 | |
| 20260506163937 | 56 | 13 | 2.0 | 2.0 | 0.00 | 0.00 | 0.00 | 84 | |
| 20260506163431 | 56 | 337 | 0.0 | 2.0 | 0.00 | 0.00 | 0.00 | 84 | |
| 20260506162926 | 56 | 61 | 2.0 | 2.0 | 0.00 | 0.00 | 0.00 | 85 | |
| 20260506162425 | 56 | 42 | 1.0 | 3.0 | 0.00 | 0.00 | 0.00 | 85 | |
| 20260506161922 | 56 | 60 | 2.0 | 3.0 | 0.00 | 0.00 | 0.00 | 86 | |
| 20260506161420 | 56 | 78 | 4.0 | 4.0 | 0.00 | 0.00 | 0.00 | 86 | |
| 20260506160917 | 56 | 92 | 3.0 | 3.0 | 0.00 | 0.00 | 0.00 | 85 | |
| 20260506160414 | 56 | 87 | 2.0 | 4.0 | 0.00 | 0.00 | 0.00 | 85 | |
| 20260506155912 | 56 | 108 | 3.0 | 5.0 | 0.00 | 0.00 | 0.00 | 85 | |
| 20260506155409 | 56 | 92 | 2.0 | 4.0 | 0.00 | 0.00 | 0.00 | 86 | |
| 20260506153531 | 55 | 101 | 3.0 | 5.0 | 0.00 | 0.00 | 0.00 | 88 | |
| 20260506153028 | 55 | 82 | 2.0 | 4.0 | 0.00 | 0.00 | 0.00 | 88 | |
| 20260506152525 | 55 | 121 | 4.0 | 5.0 | 0.00 | 0.00 | 0.00 | 88 | |
| 20260506152023 | 55 | 78 | 2.0 | 4.0 | 0.00 | 0.00 | 0.00 | 88 | |
| 20260506151520 | 55 | 70 | 2.0 | 4.0 | 0.00 | 0.00 | 0.00 | 88 | |
| 20260506151018 | 55 | 339 | 2.0 | 3.0 | 0.00 | 0.00 | 0.00 | 89 | |
| 20260506150513 | 55 | 57 | 2.0 | 3.0 | 0.00 | 0.00 | 0.00 | 90 | |
| 20260506150011 | 55 | 55 | 4.0 | 4.0 | 0.00 | 0.00 | 0.00 | 90 | |
| 20260506145507 | 55 | 61 | 3.0 | 4.0 | 0.00 | 0.00 | 0.00 | 90 | |
| 20260506145005 | 55 | 52 | 6.0 | 6.0 | 0.00 | 0.00 | 0.00 | 91 | |
| 20260506144501 | 54 | 57 | 4.0 | 5.0 | 0.00 | 0.00 | 0.00 | 92 | |
| 20260506143959 | 54 | 70 | 4.0 | 5.0 | 0.00 | 0.00 | 0.00 | 92 | |
| 20260506143456 | 55 | 57 | 3.0 | 4.0 | 0.00 | 0.00 | 0.00 | 92 | |
| 20260506142955 | 55 | 48 | 3.0 | 4.0 | 0.00 | 0.00 | 0.00 | 92 | |
| 20260506142452 | 54 | 86 | 2.0 | 5.0 | 0.00 | 0.00 | 0.00 | 91 | |
| 20260506141950 | 55 | 91 | 3.0 | 4.0 | 0.00 | 0.00 | 0.00 | 91 | |
| 20260506141447 | 54 | 78 | 2.0 | 4.0 | 0.00 | 0.00 | 0.00 | 91 | |
| 20260506140946 | 54 | 91 | 3.0 | 4.0 | 0.00 | 0.00 | 0.00 | 90 | |
| 20260506140442 | 54 | 75 | 3.0 | 3.0 | 0.00 | 0.00 | 0.00 | 90 | |
| 20260506135939 | 54 | 102 | 3.0 | 4.0 | 0.00 | 0.00 | 0.00 | 90 | |
| 20260506135437 | 54 | 76 | 2.0 | 4.0 | 0.00 | 0.00 | 0.00 | 89 | |
| 20260506134932 | 55 | 89 | 2.0 | 3.0 | 0.00 | 0.00 | 0.00 | 89 | |
| 20260506134429 | 55 | 70 | 2.0 | 3.0 | 0.00 | 0.00 | 0.00 | 89 | |
| 20260506133926 | 55 | 59 | 2.0 | 4.0 | 0.00 | 0.00 | 0.00 | 88 | |
| 20260506133423 | 55 | 50 | 3.0 | 3.0 | 0.00 | 0.00 | 0.00 | 88 | |
| 20260506132919 | 55 | 32 | 2.0 | 4.0 | 0.00 | 0.00 | 0.00 | 88 | |
| 20260506132416 | 55 | 70 | 3.0 | 3.0 | 0.00 | 0.00 | 0.00 | 88 | |
| 20260506131914 | 55 | 16 | 2.0 | 2.0 | 0.00 | 0.00 | 0.00 | 88 | |
| 20260506131410 | 55 | 60 | 3.0 | 4.0 | 0.00 | 0.00 | 0.00 | 88 | |
| 20260506130908 | 54 | 72 | 2.0 | 3.0 | 0.00 | 0.00 | 0.00 | 89 | |
| 20260506130403 | 54 | 34 | 2.0 | 4.0 | 0.00 | 0.00 | 0.00 | 89 | |
| 20260506125902 | 54 | 67 | 3.0 | 3.0 | 0.00 | 0.00 | 0.00 | 89 | |
| 20260506125400 | 54 | 27 | 3.0 | 3.0 | 0.00 | 0.00 | 0.00 | 89 | |
| 20260506124858 | 54 | 24 | 1.0 | 7.0 | 0.00 | 0.00 | 0.00 | 89 | |
| 20260506124354 | 54 | 65 | 4.0 | 4.0 | 0.00 | 0.00 | 0.00 | 89 | |
| 20260506123853 | 54 | 81 | 3.0 | 4.0 | 0.00 | 0.00 | 0.00 | 88 | |
| 20260506123351 | 54 | 34 | 2.0 | 4.0 | 0.00 | 0.00 | 0.00 | 88 | |
| 20260506122848 | 54 | 49 | 3.0 | 4.0 | 0.00 | 0.00 | 0.00 | 89 | |
| 20260506122344 | 54 | 24 | 2.0 | 4.0 | 0.00 | 0.00 | 0.00 | 89 | |
| 20260506121843 | 54 | 68 | 2.0 | 4.0 | 0.00 | 0.00 | 0.00 | 89 | |
| 20260506121339 | 54 | 41 | 2.0 | 5.0 | 0.00 | 0.00 | 0.00 | 89 | |
| 20260506120836 | 54 | 69 | 4.0 | 5.0 | 0.00 | 0.00 | 0.00 | 90 | |
| 20260506120334 | 54 | 76 | 2.0 | 5.0 | 0.00 | 0.00 | 0.00 | 90 | |
| 20260506115831 | 54 | 49 | 3.0 | 5.0 | 0.00 | 0.00 | 0.00 | 90 | |
| 20260506115329 | 54 | 55 | 2.0 | 4.0 | 0.00 | 0.00 | 0.00 | 90 | |
| 20260506114827 | 54 | 358 | 2.0 | 3.0 | 0.00 | 0.00 | 0.00 | 90 | |
| 20260506114325 | 54 | 5 | 3.0 | 4.0 | 0.00 | 0.00 | 0.00 | 90 | |
| 20260506113823 | 54 | 63 | 2.0 | 4.0 | 0.00 | 0.00 | 0.00 | 90 | |
| 20260506113320 | 54 | 24 | 2.0 | 3.0 | 0.00 | 0.00 | 0.00 | 91 | |
| 20260506112817 | 53 | 25 | 2.0 | 3.0 | 0.00 | 0.00 | 0.00 | 92 | |
| 20260506112314 | 53 | 17 | 1.0 | 3.0 | 0.00 | 0.00 | 0.00 | 92 | |
| 20260506111811 | 53 | 53 | 2.0 | 4.0 | 0.00 | 0.00 | 0.00 | 92 | |
| 20260506111309 | 53 | 75 | 2.0 | 4.0 | 0.00 | 0.00 | 0.00 | 92 | |
| 20260506110807 | 53 | 27 | 2.0 | 4.0 | 0.00 | 0.00 | 0.00 | 93 | |
| 20260506110304 | 53 | 46 | 3.0 | 4.0 | 0.00 | 0.00 | 0.00 | 93 | |
| 20260506105800 | 53 | 72 | 4.0 | 6.0 | 0.00 | 0.00 | 0.00 | 93 | |
| 20260506105257 | 53 | 108 | 2.0 | 5.0 | 0.00 | 0.00 | 0.00 | 93 | |
| 20260506104755 | 53 | 78 | 2.0 | 4.0 | 0.00 | 0.00 | 0.00 | 93 | |
| 20260506104252 | 53 | 82 | 1.0 | 5.0 | 0.00 | 0.00 | 0.00 | 93 | |
| 20260506103749 | 53 | 88 | 2.0 | 3.0 | 0.00 | 0.00 | 0.00 | 93 | |
| 20260506103247 | 53 | 82 | 2.0 | 2.0 | 0.00 | 0.00 | 0.00 | 93 | |
| 20260506102744 | 53 | 50 | 2.0 | 3.0 | 0.00 | 0.00 | 0.00 | 93 | |
| 20260506102242 | 53 | 71 | 2.0 | 4.0 | 0.00 | 0.00 | 0.00 | 93 | |
| 20260506101739 | 53 | 64 | 3.0 | 4.0 | 0.00 | 0.00 | 0.00 | 93 | |
| 20260506101235 | 53 | 84 | 2.0 | 4.0 | 0.00 | 0.00 | 0.00 | 93 | |
| 20260506100733 | 53 | 48 | 2.0 | 4.0 | 0.00 | 0.00 | 0.00 | 93 | |
| 20260506100231 | 53 | 72 | 2.0 | 4.0 | 0.00 | 0.00 | 0.00 | 93 | |
| 20260506095729 | 53 | 39 | 2.0 | 4.0 | 0.00 | 0.00 | 0.00 | 92 | |
| 20260506095226 | 53 | 66 | 2.0 | 3.0 | 0.00 | 0.00 | 0.00 | 93 | |
| 20260506094723 | 53 | 61 | 3.0 | 5.0 | 0.00 | 0.00 | 0.00 | 92 | |
| 20260506094221 | 53 | 48 | 3.0 | 5.0 | 0.00 | 0.00 | 0.00 | 93 | |
| 20260506093720 | 53 | 60 | 3.0 | 4.0 | 0.00 | 0.00 | 0.00 | 93 | |
| 20260506093216 | 53 | 56 | 2.0 | 4.0 | 0.00 | 0.00 | 0.00 | 93 | |
| 20260506092714 | 53 | 58 | 3.0 | 4.0 | 0.00 | 0.00 | 0.00 | 94 | |
| 20260506092211 | 53 | 46 | 3.0 | 4.0 | 0.00 | 0.00 | 0.00 | 94 | |
| 20260506091709 | 53 | 24 | 2.0 | 3.0 | 0.00 | 0.00 | 0.00 | 94 | |
| 20260506091206 | 53 | 10 | 3.0 | 4.0 | 0.00 | 0.00 | 0.00 | 94 | |
| 20260506090704 | 53 | 14 | 3.0 | 4.0 | 0.00 | 0.00 | 0.00 | 94 | |
| 20260506090200 | 53 | 34 | 2.0 | 3.0 | 0.00 | 0.00 | 0.00 | 94 | |
| 20260506085657 | 53 | 51 | 2.0 | 3.0 | 0.00 | 0.00 | 0.00 | 93 | |
| 20260506085153 | 53 | 50 | 2.0 | 2.0 | 0.00 | 0.00 | 0.00 | 93 | |
| 20260506084650 | 53 | 65 | 2.0 | 3.0 | 0.00 | 0.00 | 0.00 | 93 | |
| 20260506084147 | 53 | 30 | 1.0 | 3.0 | 0.00 | 0.00 | 0.00 | 93 | |
| 20260506083644 | 53 | 48 | 2.0 | 3.0 | 0.00 | 0.00 | 0.00 | 93 | |
| 20260506083141 | 53 | 38 | 1.0 | 2.0 | 0.00 | 0.00 | 0.00 | 93 | |
| 20260506082638 | 53 | 42 | 1.0 | 3.0 | 0.00 | 0.00 | 0.00 | 93 | |
| 20260506082133 | 53 | 52 | 2.0 | 3.0 | 0.00 | 0.00 | 0.00 | 92 | |
| 20260506081632 | 53 | 61 | 2.0 | 3.0 | 0.00 | 0.00 | 0.00 | 92 | |
| 20260506081129 | 54 | 67 | 3.0 | 4.0 | 0.00 | 0.00 | 0.00 | 92 | |
| 20260506080627 | 54 | 30 | 2.0 | 3.0 | 0.00 | 0.00 | 0.00 | 92 | |
| 20260506080123 | 54 | 55 | 4.0 | 4.0 | 0.00 | 0.00 | 0.00 | 92 | |
| 20260506073107 | 55 | 41 | 3.0 | 4.0 | 0.00 | 0.00 | 0.00 | 89 | |
| 20260506072603 | 56 | 68 | 4.0 | 5.0 | 0.00 | 0.00 | 0.00 | 89 | |
| 20260506072102 | 56 | 45 | 3.0 | 4.0 | 0.00 | 0.00 | 0.00 | 88 | |
| 20260506071559 | 56 | 60 | 3.0 | 4.0 | 0.00 | 0.00 | 0.00 | 89 | |
| 20260506071056 | 56 | 57 | 3.0 | 4.0 | 0.00 | 0.00 | 0.00 | 88 | |
| 20260506070554 | 56 | 64 | 2.0 | 3.0 | 0.00 | 0.00 | 0.00 | 88 | |
| 20260506062033 | 56 | 16 | 2.0 | 3.0 | 0.00 | 0.00 | 0.00 | 86 | |
| 20260506061529 | 56 | 10 | 3.0 | 3.0 | 0.00 | 0.00 | 0.00 | 86 | |
| 20260506061027 | 57 | 43 | 2.0 | 3.0 | 0.00 | 0.00 | 0.00 | 85 | |
| 20260506060525 | 57 | 6 | 2.0 | 3.0 | 0.00 | 0.00 | 0.00 | 85 | |
| 20260506050954 | 59 | 54 | 3.0 | 4.0 | 0.00 | 0.00 | 0.00 | 81 | |
| 20260506050452 | 59 | 54 | 3.0 | 4.0 | 0.00 | 0.00 | 0.00 | 80 | |
| 20260506044942 | 60 | 51 | 3.0 | 5.0 | 0.00 | 0.00 | 0.00 | 79 | |
| 20260506044440 | 60 | 60 | 3.0 | 5.0 | 0.00 | 0.00 | 0.00 | 79 | |
| 20260506043936 | 60 | 50 | 3.0 | 4.0 | 0.00 | 0.00 | 0.00 | 78 | |
| 20260506043434 | 60 | 60 | 4.0 | 5.0 | 0.00 | 0.00 | 0.00 | 78 | |
| 20260506042931 | 60 | 58 | 3.0 | 4.0 | 0.00 | 0.00 | 0.00 | 77 | |
| 20260506042431 | 61 | 65 | 4.0 | 4.0 | 0.00 | 0.00 | 0.00 | 77 | |
| 20260506041928 | 61 | 57 | 2.0 | 4.0 | 0.00 | 0.00 | 0.00 | 76 | |
| 20260506041426 | 61 | 50 | 4.0 | 4.0 | 0.00 | 0.00 | 0.00 | 75 | |
| 20260506040923 | 62 | 56 | 2.0 | 4.0 | 0.00 | 0.00 | 0.00 | 74 | |
| 20260506040421 | 62 | 51 | 2.0 | 2.0 | 0.00 | 0.00 | 0.00 | 74 | |
| 20260506035916 | 62 | 50 | 2.0 | 2.0 | 0.00 | 0.00 | 0.00 | 73 | |
| 20260506035414 | 62 | 55 | 2.0 | 3.0 | 0.00 | 0.00 | 0.00 | 72 | |
| 20260506034911 | 62 | 63 | 2.0 | 2.0 | 0.00 | 0.00 | 0.00 | 72 | |
| 20260506034408 | 63 | 61 | 2.0 | 2.0 | 0.00 | 0.00 | 0.00 | 71 | |
| 20260506033905 | 63 | 45 | 2.0 | 2.0 | 0.00 | 0.00 | 0.00 | 71 | |
| 20260506033402 | 63 | 65 | 1.0 | 2.0 | 0.00 | 0.00 | 0.00 | 70 | |
| 20260506032859 | 63 | 36 | 2.0 | 3.0 | 0.00 | 0.00 | 0.00 | 70 | |
| 20260506032355 | 64 | 23 | 1.0 | 3.0 | 0.00 | 0.00 | 0.00 | 69 | |
| 20260506031852 | 64 | 60 | 2.0 | 2.0 | 0.00 | 0.00 | 0.00 | 69 | |
| 20260506031350 | 64 | 50 | 2.0 | 3.0 | 0.00 | 0.00 | 0.00 | 68 | |
| 20260506030847 | 64 | 30 | 2.0 | 3.0 | 0.00 | 0.00 | 0.00 | 68 | |
| 20260506030345 | 65 | 59 | 3.0 | 4.0 | 0.00 | 0.00 | 0.00 | 67 | |
| 20260506025842 | 65 | 70 | 3.0 | 3.0 | 0.00 | 0.00 | 0.00 | 66 | |
| 20260506025338 | 65 | 54 | 3.0 | 3.0 | 0.00 | 0.00 | 0.00 | 66 | |
| 20260506024835 | 66 | 50 | 2.0 | 4.0 | 0.00 | 0.00 | 0.00 | 65 | |
| 20260506024332 | 66 | 63 | 2.0 | 3.0 | 0.00 | 0.00 | 0.00 | 64 | |
| 20260506023828 | 66 | 63 | 1.0 | 4.0 | 0.00 | 0.00 | 0.00 | 64 | |
| 20260506023325 | 66 | 60 | 2.0 | 3.0 | 0.00 | 0.00 | 0.00 | 64 | |
| 20260506022822 | 66 | 77 | 2.0 | 3.0 | 0.00 | 0.00 | 0.00 | 63 | |
| 20260506022320 | 67 | 52 | 2.0 | 5.0 | 0.00 | 0.00 | 0.00 | 62 | |
| 20260506021818 | 66 | 117 | 4.0 | 4.0 | 0.00 | 0.00 | 0.00 | 63 | |
| 20260506021314 | 66 | 92 | 3.0 | 4.0 | 0.00 | 0.00 | 0.00 | 64 | |
| 20260506020811 | 66 | 74 | 5.0 | 6.0 | 0.00 | 0.00 | 0.00 | 63 | |
| 20260506020309 | 66 | 45 | 2.0 | 4.0 | 0.00 | 0.00 | 0.00 | 63 | |
| 20260506015807 | 66 | 57 | 4.0 | 5.0 | 0.00 | 0.00 | 0.00 | 63 | |
| 20260506015306 | 66 | 84 | 4.0 | 6.0 | 0.00 | 0.00 | 0.00 | 63 | |
| 20260506014800 | 66 | 82 | 3.0 | 6.0 | 0.00 | 0.00 | 0.00 | 63 | |
| 20260506014257 | 67 | 66 | 3.0 | 5.0 | 0.00 | 0.00 | 0.00 | 62 | |
| 20260506013754 | 68 | 74 | 2.0 | 2.0 | 0.00 | 0.00 | 0.00 | 61 | |
| 20260506013251 | 67 | 85 | 2.0 | 3.0 | 0.00 | 0.00 | 0.00 | 62 | |
| 20260506012748 | 67 | 6 | 1.0 | 3.0 | 0.00 | 0.00 | 0.00 | 61 | |
| 20260506012244 | 66 | 41 | 2.0 | 4.0 | 0.00 | 0.00 | 0.00 | 62 | |
| 20260506011742 | 67 | 68 | 2.0 | 4.0 | 0.00 | 0.00 | 0.00 | 61 | |
| 20260506011238 | 68 | 71 | 4.0 | 6.0 | 0.00 | 0.00 | 0.00 | 60 | |
| 20260506010736 | 68 | 68 | 2.0 | 2.0 | 0.00 | 0.00 | 0.00 | 61 | |
| 20260506010233 | 66 | 46 | 2.0 | 4.0 | 0.00 | 0.00 | 0.00 | 62 | |
| 20260506005731 | 67 | 86 | 3.0 | 4.0 | 0.00 | 0.00 | 0.00 | 62 | |
| 20260506005227 | 67 | 101 | 2.0 | 3.0 | 0.00 | 0.00 | 0.00 | 62 | |
| 20260506004723 | 67 | 105 | 2.0 | 4.0 | 0.00 | 0.00 | 0.00 | 62 | |
| 20260506004221 | 68 | 80 | 2.0 | 4.0 | 0.00 | 0.00 | 0.00 | 61 | |
| 20260506003717 | 67 | 170 | 3.0 | 4.0 | 0.00 | 0.00 | 0.00 | 61 | |
| 20260506003213 | 67 | 66 | 0.0 | 3.0 | 0.00 | 0.00 | 0.00 | 62 | |
| 20260506002709 | 67 | 96 | 2.0 | 3.0 | 0.00 | 0.00 | 0.00 | 61 | |
| 20260506002205 | 66 | 311 | 2.0 | 5.0 | 0.00 | 0.00 | 0.00 | 62 | |
| 20260506001701 | 66 | 351 | 2.0 | 3.0 | 0.00 | 0.00 | 0.00 | 63 | |
| 20260506001159 | 66 | 356 | 2.0 | 6.0 | 0.00 | 0.00 | 0.00 | 63 | |
| 20260506000656 | 65 | 80 | 2.0 | 3.0 | 0.00 | 0.00 | 0.00 | 64 | |
| 20260506000153 | 65 | 87 | 2.0 | 7.0 | 0.00 | 0.00 | 0.00 | 63 | |
| 20260505235651 | 66 | 59 | 3.0 | 5.0 | 0.00 | 0.00 | 0.00 | 62 | |
| 20260505235149 | 65 | 54 | 0.0 | 3.0 | 0.00 | 0.00 | 0.00 | 65 | |
| 20260505234645 | 66 | 118 | 6.0 | 8.0 | 0.00 | 0.00 | 0.00 | 62 | |
| 20260505234142 | 66 | 7 | 1.0 | 4.0 | 0.00 | 0.00 | 0.00 | 62 | |
| 20260505233639 | 65 | 118 | 5.0 | 6.0 | 0.00 | 0.00 | 0.00 | 64 | |
| 20260505233137 | 65 | 315 | 0.0 | 4.0 | 0.00 | 0.00 | 0.00 | 64 | |
| 20260505232634 | 65 | 296 | 0.0 | 2.0 | 0.00 | 0.00 | 0.00 | 63 |